Flag for China Weather past 2 weeks in Tianjin, China

Now
48 °F

Fog.


Feels Like: 48 °F
Forecast: 49 / 74 °F
Wind: 1 mph from Northeast

Location: Tianjin / Zhangguizhu


UV Index: 5 (Moderate)

Visibility: 2 mi


Pressure: 30.07 "Hg

Humidity: 76%

Dew point: 41 °F

Location of TianjinLocation

Historic Weather in Tianjin

°F

Tianjin temperature yesterday

Maximum temperature yesterday: 64 °F (at 12:00 PM)
Minimum temperature yesterday: 50 °F (at 10:00 PM)
Average temperature yesterday: 56 °F

Past Weeks' High & Low Weather Summary

 TemperatureHumidityPressure
High86 °F (Apr 9, 3:00 PM)94% (Apr 13, 3:00 AM)30.27 "Hg (Apr 13, 3:00 AM)
Low41 °F (Apr 5, 3:30 AM)9% (Apr 16, 5:00 PM)29.77 "Hg (Apr 9, 1:00 PM)
Average60 °F47%30.04 "Hg
* Reported Apr 5 1:00 AM — Apr 20 1:30 AM, Tianjin, Weather by CustomWeather, © 2014

Note: Actual official high and low records may vary slightly from our data, if they occured in-between our weather recording intervals... More about our weather records

Advertising

Historic Weather Conditions — Data for Previous 24 hours

 ConditionsComfort  
Time TempWeatherWind HumidityBarometerVisibility
1:30 AM
Apr 20
46 °FHaze.1 mph87%30.09 "Hg2 mi
1:00 AM48 °FHaze.1 mph76%30.09 "Hg2 mi
12:30 AM48 °FHaze.1 mph82%30.09 "Hg2 mi
12:00 AM48 °FHaze.No wind82%30.09 "Hg2 mi
11:30 PM
Apr 19
50 °FHaze.No wind67%30.09 "Hg2 mi
11:00 PM52 °FHaze.1 mph67%30.09 "Hg2 mi
10:30 PM50 °FHaze.No wind71%30.09 "Hg3 mi
10:00 PM50 °FHaze.1 mph67%30.09 "Hg3 mi
9:30 PM52 °FClear.No wind67%30.09 "Hg4 mi
9:00 PM54 °FClear.1 mph58%30.09 "Hg4 mi
8:30 PM54 °FClear.3 mph58%30.09 "Hg4 mi
8:00 PM54 °FClear.3 mph58%30.09 "Hg4 mi
7:30 PM55 °FClear.1 mph55%30.09 "Hg4 mi
7:00 PM55 °FHaze.6 mph55%30.09 "Hg3 mi
6:30 PM55 °FHaze.8 mph59%30.09 "Hg3 mi
6:00 PM55 °FHaze.8 mph59%30.09 "Hg3 mi
5:30 PM55 °FLight rain. Haze.8 mph67%30.09 "Hg3 mi
5:00 PM57 °FLight rain. Clear.10 mph51%30.09 "Hg5 mi
4:30 PM59 °FSunny.10 mph45%30.09 "Hg10 mi
4:00 PM63 °FSunny.6 mph17%30.12 "Hg10 mi
3:30 PM63 °FPassing clouds.6 mph19%30.12 "HgN/A
3:00 PM61 °FSunny.3 mph19%30.12 "Hg10 mi
2:30 PM63 °FSunny.3 mph19%30.12 "Hg10 mi
2:00 PM63 °FPassing clouds.6 mph19%30.15 "HgN/A
1:30 PM63 °FPassing clouds.6 mph20%30.15 "HgN/A
1:00 PM63 °FSunny.8 mph19%30.15 "Hg10 mi
12:30 PM64 °FPassing clouds.8 mph18%30.15 "HgN/A
12:00 PM64 °FPassing clouds.8 mph18%30.15 "HgN/A
11:30 AM63 °FPassing clouds.8 mph19%30.15 "HgN/A
11:00 AM63 °FPassing clouds.10 mph20%30.15 "HgN/A
10:30 AM61 °FPassing clouds.8 mph23%30.18 "HgN/A
10:00 AM63 °FSunny.10 mph22%30.18 "Hg10 mi
9:30 AM61 °FSunny.13 mph22%30.15 "Hg10 mi
9:00 AM59 °FSunny.13 mph27%30.18 "Hg10 mi
8:30 AM59 °FSunny.13 mph29%30.18 "Hg10 mi
8:00 AM57 °FSunny.6 mph44%30.18 "Hg10 mi
7:30 AM55 °FClear.3 mph55%30.18 "Hg5 mi
7:00 AM54 °FClear.1 mph58%30.18 "Hg5 mi
6:30 AM54 °FClear.3 mph58%30.18 "Hg5 mi
6:00 AM52 °FClear.1 mph62%30.18 "Hg4 mi
5:30 AM52 °FHaze.1 mph62%30.18 "Hg3 mi
5:00 AM52 °FClear.3 mph62%30.15 "Hg4 mi
4:30 AM52 °FClear.3 mph67%30.15 "Hg4 mi
4:00 AM52 °FClear.6 mph67%30.15 "Hg4 mi
3:30 AM52 °FClear.6 mph67%30.15 "Hg4 mi
3:00 AM52 °FClear.3 mph67%30.18 "Hg5 mi
2:30 AM54 °FClear.1 mph58%30.18 "Hg10 mi
2:00 AM54 °FClear.1 mph58%30.18 "Hg10 mi
Weather by CustomWeather, © 2014

See weather overview